User: anonymous   Login
Location: ??
(35.4032°N, 139.3073°E)
Time: 10:22:56
(UTC+00:00)
Language:

Meteor 2-4 Rocket - Orbit

View from above orbital plane
View from above orbital plane
View from above satellite
View from above satellite

Ground track
Ground track

The orbit data is extracted from the following two-line orbital elements,

1 11289U 79021B   24169.75262955  .00000119  00000-0  56654-4 0  9994
2 11289  81.2454 188.6730 0075563 174.6452 185.5546 14.11854436331418
Epoch (UTC): 17 June 2024 18:03:47
Eccentricity: 0.0075563
inclination: 81.2454°
perigee height: 798 km
apogee height: 907 km
right ascension of ascending node: 188.6730°
argument of perigee: 174.6452°
revolutions per day: 14.11854436
mean anomaly at epoch: 185.5546°
orbit number at epoch: 33141

The dashed part of the orbit path shows where the satellite is in the earth's shadow,  

DLR